Retour au catalogue

STARLINK-38163

ActifCommunicationsSSO
NORAD 100250·PAYLOAD·🇺🇸 United States

Lancé Aug 8, 2026 depuis Vandenberg Space Force Base

Loading…

Prochains Passages (prochaines 24 heures)

TLE

FraisSource: Space-Track

Époque: Sep 14, 2026, 22:01 UTC

1 A0250U 26181E   26257.91778834  .00191756  00000-0  12545-2 0  9992
2 A0250  97.2810 301.1136 0002543  69.4930 290.6608 15.75249146  7075

Suivez STARLINK-38163 en temps réel avec AllMySat

Download on the App Store